Date,TemperatureHighF,TemperatureAvgF,TemperatureLowF,DewpointHighF,DewpointAvgF,DewpointLowF,HumidityHigh,HumidityAvg,HumidityLow,PressureMaxIn,PressureMinIn,WindSpeedMaxMPH,WindSpeedAvgMPH,GustSpeedMaxMPH,PrecipitationSumIn
2013-1-1,63.1,47.1,39.7,44.7,36.9,32.0,86,69,45,30.00,29.91,8,2,8,0.00
2013-1-2,65.5,45.7,36.1,42.4,34.1,30.4,82,66,37,29.94,29.85,5,1,6,0.00
2013-1-3,64.9,45.3,36.9,45.8,35.9,31.5,85,71,42,29.97,29.85,5,1,5,0.00
2013-1-4,67.8,48.5,39.4,43.4,37.2,34.6,85,67,37,29.97,29.88,6,1,6,0.00
2013-1-5,56.5,49.1,41.2,48.8,43.3,34.7,91,81,71,29.94,29.76,8,1,9,0.00
2013-1-6,53.8,48.4,43.2,48.9,45.1,40.0,94,88,80,29.91,29.74,10,2,11,0.12
2013-1-7,66.4,50.6,41.5,54.7,45.2,39.4,96,83,58,29.97,29.85,4,1,4,0.00
2013-1-8,70.7,52.5,44.4,56.3,45.5,41.1,95,79,48,29.94,29.82,4,0,6,0.00
2013-1-9,57.6,48.7,44.4,50.4,43.9,37.7,93,84,74,29.85,29.71,20,3,20,0.05
2013-1-10,59.2,46.9,41.7,40.8,36.4,32.6,83,68,46,29.91,29.76,18,5,18,0.00
2013-1-11,60.4,47.3,38.5,41.4,35.9,30.2,78,65,47,29.97,29.82,13,3,14,0.00
2013-1-12,61.7,44.2,37.4,38.2,32.5,23.8,86,66,34,29.97,29.85,6,1,6,0.00
2013-1-13,60.6,42.7,33.3,34.1,27.5,22.9,75,57,34,29.97,29.88,9,1,9,0.00
2013-1-14,60.4,43.8,34.3,30.5,22.7,16.5,61,44,29,30.12,29.94,9,2,9,0.00
2013-1-15,64.6,45.4,34.9,36.8,29.1,25.6,71,55,33,30.18,30.09,6,1,6,0.00
2013-1-16,66.4,46.1,35.8,39.8,31.3,27.4,74,58,34,30.12,29.97,4,1,5,0.00
2013-1-17,70.3,49.8,38.5,40.8,34.1,29.7,72,57,33,30.00,29.85,8,1,8,0.00
2013-1-18,72.1,51.7,40.3,43.0,35.4,30.2,72,56,32,29.94,29.82,7,1,7,0.00
2013-1-19,72.1,52.0,39.4,42.6,34.9,29.2,73,54,32,29.97,29.85,7,1,7,0.00
2013-1-20,73.2,51.7,40.5,43.1,35.2,31.2,77,56,30,29.94,29.82,6,1,8,0.00
2013-1-21,72.9,51.9,40.1,46.9,36.0,30.7,96,57,33,29.91,29.79,7,1,7,0.00
2013-1-22,70.9,53.1,43.2,44.4,39.0,34.9,73,60,35,29.82,29.71,6,1,6,0.00
2013-1-23,55.9,52.4,49.8,52.0,45.8,40.0,93,79,67,29.79,29.65,6,1,6,0.08
2013-1-24,58.1,54.6,51.6,54.1,51.7,49.5,96,90,82,29.91,29.76,5,1,5,0.04
2013-1-25,74.5,59.3,53.8,62.4,53.3,49.4,96,82,58,29.94,29.76,8,1,8,0.00
2013-1-26,66.6,54.5,49.3,50.6,45.2,37.8,92,73,46,29.82,29.71,18,4,19,0.00
2013-1-27,68.4,54.4,46.9,44.2,38.3,34.4,72,56,35,29.91,29.85,15,5,20,0.00
2013-1-28,68.2,54.4,46.6,47.1,41.5,37.9,76,63,42,30.03,29.88,16,6,18,0.00
2013-1-29,68.0,52.9,46.6,46.7,41.9,39.4,80,68,45,30.06,29.97,10,3,13,0.00
2013-1-30,76.1,55.5,45.3,47.5,41.7,38.9,80,63,33,30.03,29.94,7,1,7,0.00
2013-1-31,73.9,54.1,43.2,49.5,42.5,38.2,86,67,38,30.00,29.88,6,1,6,0.00
2013-2-1,48.0,47.4,46.9,41.5,40.9,40.5,79,78,77,29.94,29.88,2,0,2,0.00
2013-2-3,69.4,55.4,45.9,47.8,42.5,39.7,81,63,45,29.91,29.85,6,2,9,0.00
2013-2-4,67.1,51.6,45.0,54.8,45.4,39.7,92,80,57,29.94,29.79,5,1,6,0.00
2013-2-5,59.5,51.9,48.0,47.5,44.3,41.3,86,75,63,29.88,29.79,14,4,14,0.00
2013-2-6,69.6,51.8,41.5,48.9,41.2,36.8,88,69,43,29.91,29.82,13,3,13,0.00
2013-2-7,63.1,48.8,41.9,51.0,39.9,35.4,88,73,47,29.88,29.74,13,2,14,0.08
2013-2-8,59.7,47.9,42.1,48.5,39.7,32.0,91,74,51,29.74,29.62,12,3,16,0.09
2013-2-9,68.4,50.7,39.0,38.6,31.8,0.0,67,50,30,29.79,29.68,9,2,10,0.00
2013-2-10,68.7,50.1,37.6,41.1,33.9,27.7,74,56,33,29.82,29.74,7,1,7,0.00
2013-2-11,72.3,53.3,41.5,39.1,32.8,28.2,68,48,26,29.97,29.76,10,2,10,0.00
2013-2-12,70.3,51.9,41.0,46.5,38.1,31.8,80,61,34,30.06,29.94,6,1,6,0.00
2013-2-13,72.9,53.6,41.5,51.0,40.5,35.3,84,64,35,30.09,29.94,6,1,6,0.00
2013-2-14,76.8,57.1,43.5,48.8,41.0,37.5,86,58,32,29.97,29.88,9,1,9,0.00
2013-2-15,79.0,59.5,46.4,47.2,41.4,36.2,71,53,31,30.00,29.91,5,1,6,0.00
2013-2-16,75.6,58.1,47.1,51.3,44.3,40.1,80,62,40,29.97,29.79,9,1,9,0.00
2013-2-17,73.0,55.0,44.8,48.8,42.7,38.3,89,65,38,29.79,29.71,7,2,8,0.00
2013-2-18,57.0,49.3,44.2,45.2,39.6,20.3,84,70,29,29.79,29.68,13,3,13,0.00
2013-2-19,51.4,46.3,41.2,46.4,39.2,33.9,85,76,67,29.76,29.50,24,4,24,0.29
2013-2-20,67.8,49.3,37.8,47.0,37.6,31.9,86,66,37,29.82,29.59,14,3,14,0.00
2013-2-21,68.9,52.7,43.3,44.6,36.5,18.3,81,56,34,29.91,29.74,14,4,14,0.00
2013-2-22,72.0,53.1,40.5,45.0,36.8,28.6,75,56,34,29.97,29.85,11,2,12,0.00
2013-2-23,67.6,53.4,47.3,45.5,39.1,32.3,81,60,36,29.97,29.88,18,5,19,0.00
2013-2-24,56.7,48.3,44.1,35.1,29.8,27.6,56,49,43,29.97,29.88,12,4,14,0.00
2013-2-25,71.4,59.0,45.5,47.0,40.2,35.6,70,51,38,29.97,29.88,13,3,15,0.00
2013-2-26,74.3,55.1,41.7,43.9,34.3,26.6,80,50,23,29.94,29.85,10,2,10,0.00
2013-2-27,73.4,54.3,42.3,47.2,36.8,27.8,70,53,32,30.09,29.91,10,2,10,0.00
2013-2-28,75.7,58.6,47.1,53.7,46.4,39.9,85,65,42,30.18,30.06,15,2,15,0.00
2013-3-1,78.4,60.3,48.6,58.1,48.6,44.4,92,68,40,30.15,29.94,6,1,6,0.00
2013-3-2,72.5,60.2,51.6,56.5,49.1,45.0,84,68,50,29.97,29.79,8,1,8,0.00
2013-3-3,71.6,57.6,48.9,52.7,46.5,41.2,84,68,42,29.88,29.76,14,3,14,0.00
2013-3-4,68.5,53.0,46.4,51.2,43.0,38.4,85,70,47,29.88,29.76,13,2,13,0.00
2013-3-5,66.0,52.1,41.5,45.6,40.6,36.2,84,66,44,29.76,29.56,22,4,22,0.16
2013-3-6,59.9,52.1,43.5,47.9,41.4,36.5,87,68,47,29.76,29.56,23,4,23,0.25
2013-3-7,62.6,50.4,42.4,45.4,41.4,36.8,86,72,49,29.74,29.59,10,2,10,0.17
2013-3-8,65.8,52.2,46.2,49.9,42.7,0.0,88,71,46,29.79,29.53,20,5,20,0.04
2013-3-9,74.3,57.3,46.8,47.7,40.5,34.8,81,56,32,30.00,29.76,13,4,15,0.00
2013-3-10,76.8,58.5,43.7,49.1,39.7,35.6,80,53,25,30.06,29.97,7,1,7,0.00
2013-3-11,80.1,59.3,44.8,51.4,42.8,37.3,83,58,31,29.97,29.82,8,1,8,0.00
2013-3-12,78.3,59.7,47.7,55.9,47.7,40.7,88,67,39,29.88,29.79,6,1,6,0.00
2013-3-13,81.7,63.2,47.8,57.5,49.7,43.2,89,65,35,29.88,29.79,8,1,8,0.00
2013-3-14,77.9,65.1,53.2,56.1,42.8,38.0,58,45,32,29.88,29.82,13,3,13,0.00
2013-3-15,75.2,58.8,47.3,52.2,44.8,38.6,77,61,39,29.85,29.76,10,2,12,0.00
2013-3-16,79.0,59.7,49.3,56.4,45.4,35.9,91,63,30,29.82,29.74,20,4,24,0.00
2013-3-17,76.3,59.7,49.8,47.1,40.7,34.5,70,51,32,29.88,29.76,12,3,12,0.00
2013-3-18,69.3,57.0,45.9,51.8,43.6,38.1,82,62,48,29.88,29.74,7,1,7,0.00
2013-3-19,74.3,57.6,47.8,52.2,43.5,32.8,79,61,37,29.85,29.74,13,2,13,0.04
2013-3-20,66.4,57.8,52.0,55.1,50.4,46.4,90,77,61,29.85,29.76,13,3,13,0.00
2013-3-21,72.3,57.2,46.4,50.2,42.6,36.6,82,60,36,29.85,29.71,12,3,12,0.00
2013-3-22,74.5,57.4,44.2,46.2,36.0,29.7,77,49,23,29.82,29.74,11,3,13,0.00
2013-3-23,75.0,58.2,44.4,43.5,35.7,31.8,68,46,24,29.85,29.74,8,2,9,0.00
2013-3-24,76.6,59.0,45.9,49.9,42.3,36.3,80,56,35,29.79,29.68,11,2,11,0.00
2013-3-25,70.0,55.0,46.0,49.0,42.1,37.8,79,63,44,29.74,29.65,13,2,15,0.00
2013-3-26,71.8,59.0,48.4,49.3,44.1,39.4,77,59,42,29.74,29.65,10,3,10,0.00
2013-3-27,63.5,59.0,57.0,51.4,50.6,49.7,79,74,64,29.76,29.71,10,2,10,0.00
2013-3-28,74.5,62.1,55.6,59.9,53.7,49.5,91,75,53,29.82,29.71,10,2,10,0.00
2013-3-29,80.1,64.2,50.9,57.1,51.4,47.2,92,66,40,29.82,29.74,8,2,8,0.00
2013-3-30,74.8,62.0,56.3,58.9,52.4,45.3,85,72,44,29.79,29.71,9,2,11,0.04
2013-3-31,68.9,60.8,54.0,57.4,51.1,47.1,91,72,49,29.79,29.71,14,4,15,0.09
2013-4-1,69.3,60.3,53.6,57.2,51.9,45.9,93,75,54,29.88,29.76,11,2,13,0.12
2013-4-2,74.1,59.9,48.7,56.2,49.5,44.4,89,70,47,29.91,29.79,10,2,10,0.00
2013-4-3,78.4,61.8,51.6,56.4,50.2,46.2,88,68,41,29.91,29.71,10,2,10,0.00
2013-4-4,66.9,60.0,55.0,59.1,53.0,48.3,92,78,64,29.85,29.71,12,3,12,0.29
2013-4-5,69.3,60.8,54.5,56.5,51.3,47.1,89,72,53,29.91,29.82,13,2,14,0.00
2013-4-6,69.3,60.0,54.0,56.7,51.0,46.4,88,73,56,29.91,29.85,14,2,14,0.00
2013-4-7,69.3,59.2,53.8,56.3,49.6,44.5,84,71,51,29.91,29.62,13,3,13,7.46
2013-4-8,68.7,57.0,48.9,49.1,40.1,36.3,84,55,34,29.79,29.53,27,9,27,0.00
2013-4-9,76.5,63.6,52.7,41.9,38.2,34.6,60,41,27,29.82,29.74,18,6,19,0.00
2013-4-10,88.2,69.6,54.9,51.0,44.1,37.1,55,41,28,29.88,29.79,13,4,13,0.00
2013-4-11,74.8,63.2,53.1,49.2,43.2,37.4,66,49,32,29.85,29.59,17,4,20,0.00
2013-4-12,78.8,61.0,47.7,53.3,44.2,38.4,78,56,36,29.65,29.56,12,2,12,0.00
2013-4-13,73.6,59.4,49.3,50.8,42.0,35.1,77,54,35,29.65,29.56,15,3,15,0.00
2013-4-14,72.3,57.5,47.1,45.0,39.6,36.3,75,54,32,29.68,29.59,13,4,17,1.99
2013-4-15,63.0,53.5,46.9,46.9,38.8,31.8,80,59,39,29.68,29.59,30,9,30,0.00
2013-4-16,70.9,56.4,41.5,42.2,35.6,30.7,73,48,28,29.85,29.68,17,4,18,0.00
2013-4-17,72.3,61.5,53.2,38.5,32.7,28.4,45,35,24,29.97,29.85,18,6,20,0.00
2013-4-18,79.5,63.4,48.4,43.4,35.0,29.1,59,37,22,30.00,29.91,13,2,13,0.00
2013-4-19,82.8,65.5,50.7,53.9,44.7,36.8,74,49,30,29.94,29.82,115,2,115,0.00
2013-4-20,84.2,66.9,52.0,50.4,43.0,35.6,71,45,26,29.85,29.71,11,2,11,0.00
2013-4-21,87.6,69.1,51.4,55.6,44.2,38.6,76,46,20,29.76,29.68,10,2,10,0.00
2013-4-22,90.1,72.1,56.7,48.9,43.2,39.6,62,38,19,29.68,29.59,11,2,11,0.00
2013-4-23,85.8,68.4,56.1,46.3,41.1,35.8,66,41,18,29.65,29.59,12,2,12,0.00
2013-4-24,75.7,62.1,50.7,52.6,47.0,42.1,79,59,41,29.68,29.56,6,2,6,0.00
2013-4-25,72.9,60.6,51.6,51.9,47.7,44.7,81,64,45,29.85,29.68,13,3,15,0.00
2013-4-26,74.3,61.1,51.3,52.2,47.5,43.7,81,62,43,29.94,29.82,8,2,8,0.00
2013-4-27,76.6,62.1,51.6,53.9,48.7,43.1,78,63,43,29.94,29.82,7,1,7,0.00
2013-4-28,83.3,65.8,50.7,57.6,50.5,43.8,86,61,35,29.82,29.62,13,1,13,0.00
2013-4-29,91.8,72.1,57.6,58.9,49.5,42.4,73,49,26,29.62,29.53,15,2,16,0.00
2013-4-30,85.3,68.9,54.0,54.4,44.6,36.4,71,45,22,29.62,29.50,13,3,14,0.00
2013-5-1,87.3,73.0,58.8,42.5,34.0,27.6,48,25,13,29.82,29.59,12,2,12,0.00
2013-5-2,92.5,74.1,56.7,42.2,37.7,29.3,58,30,12,29.85,29.79,13,2,13,0.00
2013-5-3,91.9,73.4,57.7,48.8,36.7,29.3,43,28,16,29.79,29.53,13,2,225,0.00
2013-5-4,89.6,71.5,57.2,52.7,45.4,38.6,57,41,22,29.53,29.29,13,2,13,0.00
2013-5-5,69.6,62.4,57.4,48.2,45.6,42.8,64,54,44,29.59,29.32,20,5,22,0.00
2013-5-6,70.5,62.9,55.8,54.2,48.2,45.4,73,59,46,29.71,29.53,12,2,12,0.00
2013-5-7,73.4,64.0,56.5,53.9,48.4,43.8,75,58,43,29.79,29.68,14,2,15,0.00
2013-5-8,70.7,60.4,54.3,54.6,49.3,45.7,81,68,49,29.88,29.76,16,4,18,0.00
2013-5-9,73.4,60.8,53.4,53.7,48.6,45.0,81,66,45,29.91,29.79,17,4,17,0.00
2013-5-10,77.0,62.7,53.1,56.7,50.5,46.6,82,66,44,29.94,29.82,11,2,12,0.00
2013-5-11,83.3,67.5,55.9,61.0,53.3,47.2,83,63,40,29.91,29.79,8,2,8,0.00
2013-5-12,84.9,68.5,54.7,62.4,51.6,32.9,84,58,32,29.88,29.79,15,3,15,0.00
2013-5-13,108.1,65.9,52.9,57.7,50.2,-12.3,81,59,39,29.82,29.71,16,3,16,0.00
2013-5-14,77.5,64.8,53.6,53.9,46.5,39.8,75,54,34,29.76,29.65,18,3,18,0.00
2013-5-15,70.9,60.3,51.4,47.7,44.1,40.8,71,56,40,29.79,29.74,20,4,20,0.00
2013-5-16,73.8,62.3,56.3,57.1,50.7,45.7,81,67,46,29.76,29.71,15,4,15,0.00
2013-5-17,72.1,60.3,53.1,50.8,45.9,41.1,78,61,40,29.82,29.71,16,5,18,0.00
2013-5-18,76.6,62.6,48.9,51.9,46.3,40.3,81,57,36,29.85,29.79,17,4,19,0.00
2013-5-19,83.8,68.0,52.3,49.9,43.3,35.6,71,44,25,29.82,29.71,15,3,15,0.00
2013-5-20,90.7,70.3,54.1,51.0,41.5,33.1,65,39,17,29.76,29.68,18,3,23,0.09
2013-5-21,72.1,61.5,52.7,50.1,42.8,35.4,69,51,34,29.74,29.65,20,5,20,0.00
2013-5-22,70.3,57.1,48.0,39.5,36.8,34.6,64,48,31,29.74,29.65,21,6,21,5.12
2013-5-23,70.9,58.3,49.1,45.7,40.0,35.3,67,52,36,29.76,29.62,21,5,21,0.00
2013-5-24,73.0,58.2,47.7,48.4,40.6,35.3,73,54,32,29.74,29.68,18,3,225,0.00
2013-5-25,69.3,57.6,48.7,47.6,44.2,39.5,75,62,43,29.79,29.68,22,4,23,0.00
2013-5-26,73.8,62.0,55.0,55.6,50.5,47.1,81,67,45,29.88,29.76,20,5,20,0.00
2013-5-27,68.2,61.3,54.9,56.0,52.2,48.0,81,72,61,29.85,29.71,11,3,14,0.00
2013-5-28,72.3,63.5,57.6,59.6,53.1,46.2,87,70,49,29.74,29.65,16,3,16,0.00
2013-5-29,72.3,63.0,57.0,57.6,49.1,42.4,73,61,49,29.74,29.65,22,4,23,0.00
2013-5-30,79.0,63.3,49.6,48.7,42.5,36.0,76,50,28,29.74,29.65,16,3,20,0.00
2013-5-31,89.1,68.9,51.1,53.8,44.2,37.6,73,45,21,29.74,29.65,12,2,13,0.00
2013-6-1,93.9,72.9,55.9,55.9,48.3,43.1,73,46,19,29.68,29.53,12,2,12,0.00
2013-6-2,84.0,68.3,56.8,55.3,50.0,44.7,72,53,35,29.56,29.44,8,2,10,0.00
2013-6-3,80.1,66.5,55.6,56.4,50.9,46.4,78,59,40,29.65,29.44,9,2,9,0.00
2013-6-4,77.0,65.7,57.6,56.9,51.8,47.8,78,62,44,29.71,29.59,10,2,10,0.00
2013-6-5,76.3,65.5,56.8,56.2,51.5,48.3,76,62,43,29.74,29.68,9,2,9,0.00
2013-6-6,78.1,66.1,58.3,57.7,52.6,49.5,77,63,45,29.68,29.59,6,2,9,0.00
2013-6-7,87.6,70.9,59.0,62.0,56.3,50.3,82,62,38,29.68,29.50,6,2,6,0.00
2013-6-8,87.3,71.9,60.1,64.1,56.1,52.5,78,59,39,29.53,29.47,8,2,8,0.00
2013-6-9,78.8,66.5,60.3,59.8,53.9,50.7,78,65,45,29.65,29.53,14,3,14,0.00
2013-6-10,72.1,63.8,57.9,53.6,50.9,49.1,74,64,48,29.71,29.56,15,3,16,0.00
2013-6-11,77.2,65.6,59.2,57.7,52.5,47.9,77,64,46,29.74,29.62,11,2,11,0.00
2013-6-12,81.1,65.2,54.0,53.9,45.6,37.5,79,53,29,29.76,29.62,26,4,26,0.00
2013-6-13,82.2,65.8,50.4,51.9,43.9,38.2,70,47,25,29.79,29.74,12,2,14,0.00
2013-6-14,88.2,69.8,54.1,52.7,44.4,36.0,72,45,20,29.76,29.59,13,2,13,0.00
2013-6-15,79.5,64.0,53.4,53.7,47.1,41.7,75,56,37,29.74,29.59,14,2,18,0.00
2013-6-16,80.6,65.7,52.7,56.8,49.1,0.0,82,57,37,29.82,29.74,17,3,17,0.00
2013-6-17,74.7,63.3,54.1,57.2,50.9,45.6,75,64,49,29.82,29.76,18,4,18,0.00
2013-6-18,69.1,61.4,55.2,52.3,49.5,47.0,80,66,48,29.76,29.74,20,5,225,0.00
2013-6-19,74.7,63.6,55.4,50.9,46.1,0.0,71,55,37,29.76,29.71,19,6,19,0.00
2013-6-20,81.1,64.6,52.2,53.5,44.9,40.8,72,51,30,29.79,29.68,24,3,24,0.00
2013-6-21,85.1,67.0,53.1,57.1,46.7,40.0,74,51,23,29.79,29.68,16,3,17,0.00
2013-6-22,88.9,68.5,54.9,60.1,48.8,40.6,78,53,23,29.68,29.62,20,3,20,0.00
2013-6-23,72.5,65.9,59.4,60.1,56.1,49.8,82,71,63,29.62,29.56,12,3,12,0.00
2013-6-24,67.6,64.8,61.3,61.6,59.4,56.8,89,83,77,29.65,29.53,10,1,10,0.93
2013-6-25,76.3,68.8,64.0,65.4,60.9,56.7,85,76,66,29.74,29.59,13,4,17,0.00
2013-6-26,84.6,72.8,63.9,68.0,61.5,55.9,89,69,48,29.85,29.71,18,3,18,0.00
2013-6-27,90.7,75.0,61.0,66.2,57.6,51.0,87,59,30,29.85,29.76,13,2,15,0.00
2013-6-28,97.7,78.7,62.1,67.3,56.5,45.0,78,51,24,29.79,29.68,14,2,225,0.00
2013-6-29,99.0,80.1,64.4,64.9,55.4,47.7,73,47,20,29.71,29.59,14,2,17,0.00
2013-6-30,94.1,76.6,62.6,63.0,55.0,49.4,73,50,27,29.68,29.56,13,2,13,0.00
2013-7-1,93.9,76.4,62.2,65.6,57.7,51.5,78,55,29,29.68,29.53,8,1,8,0.00
2013-7-2,90.0,75.1,65.8,63.7,58.9,55.9,74,59,40,29.68,29.56,7,2,7,0.00
2013-7-3,90.3,74.4,64.4,67.2,60.0,54.6,80,63,42,29.68,29.53,7,2,7,1.28
2013-7-4,92.8,77.6,66.7,67.3,57.2,43.3,72,52,30,29.53,29.47,13,2,17,0.00
2013-7-5,79.9,67.3,59.7,56.0,48.9,44.0,63,52,42,29.56,29.47,16,4,16,0.00
2013-7-6,81.5,67.2,55.9,59.0,51.6,46.9,74,59,42,29.53,29.47,8,2,8,0.00
2013-7-7,80.8,68.9,60.4,59.8,53.4,48.2,71,59,43,29.62,29.53,8,2,8,0.00
2013-7-8,81.5,69.2,59.5,60.8,54.6,48.6,72,61,43,29.71,29.59,7,2,7,0.00
2013-7-9,87.3,71.9,60.1,64.9,56.9,51.0,79,61,40,29.74,29.68,6,1,8,0.00
2013-7-10,81.1,68.4,57.2,62.0,53.7,47.4,76,60,44,29.74,29.65,6,2,8,0.00
2013-7-11,79.9,67.6,60.6,59.3,52.9,46.1,73,60,43,29.74,29.62,11,2,11,0.00
2013-7-12,83.1,68.9,58.8,59.9,53.0,48.8,73,59,35,29.68,29.65,9,2,9,0.00
2013-7-13,86.2,69.3,55.2,62.4,52.1,44.9,79,57,31,29.71,29.62,10,2,10,0.00
2013-7-14,79.5,67.0,56.3,59.7,51.9,45.8,75,59,43,29.74,29.65,8,2,10,0.00
2013-7-15,78.1,65.8,58.5,57.4,51.7,46.5,72,61,44,29.68,29.56,11,3,11,0.00
2013-7-16,76.5,63.9,54.7,57.8,51.6,46.7,78,65,48,29.82,29.59,18,4,18,0.00
2013-7-17,80.2,67.1,59.0,60.8,54.2,47.6,77,64,46,29.85,29.76,10,2,10,0.00
2013-7-18,103.6,69.1,57.2,62.4,53.8,29.6,77,60,39,29.79,29.68,9,2,9,0.00
2013-7-19,82.2,68.6,59.4,61.2,53.9,47.5,77,61,41,29.68,29.59,6,2,6,0.00
2013-7-20,82.8,68.2,58.6,61.2,53.9,47.6,76,62,42,29.68,29.50,6,2,6,0.00
2013-7-21,81.3,68.5,59.2,60.2,54.2,48.2,76,62,44,29.62,29.50,8,2,8,0.00
2013-7-22,79.3,68.5,59.4,63.8,56.9,50.1,79,67,53,29.76,29.59,6,2,7,0.00
2013-7-23,79.2,69.9,63.0,65.5,58.1,55.0,80,67,49,29.79,29.68,6,2,7,0.00
2013-7-24,84.9,71.7,60.8,66.3,57.9,53.2,83,64,43,29.71,29.68,7,2,7,1.60
2013-7-25,80.8,69.0,58.5,63.2,55.4,50.2,80,63,46,29.76,29.65,7,2,8,0.00
2013-7-26,80.1,69.4,61.5,62.8,55.9,51.6,78,63,48,29.79,29.74,8,2,8,0.00
2013-7-27,79.2,69.0,62.1,63.4,56.3,51.7,78,65,49,29.76,29.62,9,2,9,0.00
2013-7-28,79.9,69.1,60.8,61.4,55.0,48.6,77,62,45,29.71,29.56,9,2,9,0.00
2013-7-29,79.9,66.6,56.1,58.6,52.3,48.0,78,61,43,29.74,29.56,8,2,9,0.00
2013-7-30,80.2,68.2,59.7,59.3,53.5,49.8,73,60,44,29.82,29.74,8,2,8,0.00
2013-7-31,84.0,68.5,59.7,59.4,51.8,43.8,72,57,33,29.82,29.74,17,2,17,0.00
2013-8-1,78.8,65.6,55.6,55.5,48.8,44.5,72,56,36,29.79,29.68,14,3,15,0.00
2013-8-2,83.1,66.5,54.3,59.1,50.6,44.9,78,58,37,29.74,29.65,10,2,10,0.00
2013-8-3,80.1,67.7,59.2,58.3,52.8,46.9,73,60,43,29.74,29.65,8,2,8,0.00
2013-8-4,79.2,66.2,58.6,59.1,52.7,46.1,73,63,43,29.76,29.68,12,2,13,0.00
2013-8-5,78.6,66.8,58.8,60.1,53.4,46.7,100,63,45,29.76,29.68,10,2,10,0.00
2013-8-6,77.5,65.8,58.5,59.1,53.0,49.2,75,64,47,29.79,29.71,14,2,14,0.00
2013-8-7,77.5,66.5,59.4,59.4,54.0,50.3,79,65,48,29.85,29.76,14,3,174,0.00
2013-8-8,77.5,65.2,57.6,62.0,53.9,48.2,79,68,49,29.79,29.68,13,3,117,0.00
2013-8-9,79.2,65.7,55.2,60.9,54.1,35.6,82,68,49,29.74,29.65,13,3,13,0.00
2013-8-10,81.0,67.3,58.6,62.1,55.3,51.1,80,66,47,29.79,29.71,15,3,15,0.00
2013-8-11,79.9,68.1,59.7,61.9,55.1,48.9,81,64,43,29.76,29.68,11,2,225,0.00
2013-8-12,86.2,70.4,60.1,63.2,55.2,48.8,81,61,31,29.79,29.68,13,2,13,0.00
2013-8-13,90.0,70.9,56.7,63.6,53.6,44.0,82,57,31,29.76,29.65,12,2,13,0.00
2013-8-14,84.0,69.7,57.4,60.3,54.2,46.9,75,59,39,29.74,29.65,15,3,15,0.00
2013-8-15,87.1,73.6,60.8,68.0,60.9,54.9,84,66,48,29.71,29.65,11,2,11,0.00
2013-8-16,86.9,73.8,65.3,67.6,56.9,40.9,84,59,31,29.74,29.68,17,2,17,0.00
2013-8-17,82.8,68.7,60.3,62.2,55.4,47.2,75,63,47,29.74,29.62,15,2,15,0.00
2013-8-18,91.8,74.2,61.3,68.0,59.9,54.0,85,63,40,29.62,29.53,6,2,6,0.00
2013-8-19,88.3,75.1,64.6,66.5,58.9,54.6,73,58,40,29.68,29.53,6,2,7,0.00
2013-8-20,84.0,72.7,64.6,63.8,57.3,49.8,78,60,42,29.68,29.56,10,2,10,7.68
2013-8-21,79.5,68.4,61.2,60.8,54.8,49.4,73,63,46,29.68,29.59,11,3,12,0.00
2013-8-22,80.6,67.3,59.7,60.7,53.9,49.3,75,63,46,29.74,29.62,14,3,14,0.00
2013-8-23,80.1,67.1,58.6,60.3,53.3,48.3,77,63,44,29.74,29.56,13,3,14,0.00
2013-8-24,83.7,68.6,56.7,63.1,55.2,48.4,81,64,44,29.65,29.59,10,3,10,0.00
2013-8-25,84.6,71.3,63.0,67.0,59.7,52.2,84,68,45,29.74,29.62,12,2,12,0.00
2013-8-26,83.7,69.7,61.7,62.8,55.2,46.2,79,62,43,29.74,29.65,15,4,15,0.00
2013-8-27,85.1,69.3,56.8,61.2,53.6,46.8,79,59,39,29.71,29.56,17,2,17,0.00
2013-8-28,87.1,71.4,59.2,65.1,58.4,52.1,83,65,44,29.71,29.59,12,2,12,0.00
2013-8-29,86.7,73.5,64.9,65.5,59.8,55.3,79,64,43,29.79,29.68,11,2,225,0.00
2013-8-30,92.5,74.7,61.3,68.3,58.5,48.3,87,60,34,29.76,29.68,13,3,15,0.00
2013-8-31,86.2,72.2,60.1,62.3,54.3,48.7,75,55,33,29.71,29.65,16,2,16,0.00
2013-9-1,84.2,71.7,62.8,61.7,56.3,0.0,77,60,40,29.68,29.62,13,2,13,0.00
2013-9-2,79.9,71.2,65.7,66.6,60.2,57.4,79,69,56,29.71,29.62,12,2,12,0.00
2013-9-3,81.5,69.2,58.5,60.6,54.1,51.3,80,61,39,29.74,29.65,16,3,17,0.00
2013-9-4,82.2,68.6,59.4,61.2,54.9,51.9,81,63,42,29.76,29.71,21,4,225,0.00
2013-9-5,80.8,69.5,61.0,60.6,55.0,49.8,80,62,43,29.82,29.71,15,4,20,0.00
2013-9-6,91.6,73.7,57.4,62.6,51.8,42.5,81,50,27,29.74,29.59,8,2,8,0.00
2013-9-7,97.2,77.6,63.0,59.4,49.5,43.1,54,39,21,29.62,29.56,12,2,12,0.00
2013-9-8,89.1,72.6,59.5,63.5,55.7,49.4,74,57,38,29.62,29.53,6,1,6,0.00
2013-9-9,89.2,71.9,60.1,65.4,57.8,53.0,80,63,39,29.56,29.47,6,1,6,0.00
2013-9-10,84.2,70.5,62.1,63.8,57.5,52.8,81,65,42,29.62,29.47,7,1,7,0.00
2013-9-11,79.5,68.0,58.8,61.4,55.6,51.4,82,65,48,29.71,29.62,9,2,11,0.00
2013-9-12,80.2,68.5,62.4,64.0,57.6,53.2,79,69,51,29.71,29.62,10,2,11,0.00
2013-9-13,82.0,68.2,59.2,62.1,55.1,47.4,83,65,41,29.68,29.53,8,2,8,0.00
2013-9-14,76.6,65.5,58.1,59.9,53.8,50.0,82,67,47,29.56,29.50,15,4,20,0.00
2013-9-15,83.5,67.9,57.6,60.8,55.5,50.4,80,66,43,29.62,29.53,13,3,14,0.00
2013-9-16,85.5,68.6,59.5,65.2,56.4,50.5,87,67,40,29.68,29.56,21,3,21,0.04
2013-9-17,75.6,66.4,59.4,58.3,52.6,47.8,79,62,44,29.62,29.59,26,5,26,0.00
2013-9-18,87.6,68.1,55.6,59.0,48.5,40.7,79,53,28,29.65,29.56,15,2,15,0.00
2013-9-19,91.4,70.5,55.4,58.8,48.0,37.0,77,49,24,29.62,29.50,10,2,10,0.00
2013-9-20,75.4,66.2,57.6,60.7,52.9,42.5,72,62,48,29.59,29.53,11,2,13,0.00
2013-9-21,68.0,63.5,58.8,61.2,56.9,53.8,86,79,69,29.62,29.53,12,3,12,0.25
2013-9-22,77.0,64.3,54.9,60.4,53.7,48.9,91,70,45,29.76,29.62,16,3,16,0.00
2013-9-23,84.7,68.7,55.9,59.7,53.8,49.0,82,61,39,29.79,29.68,11,2,11,0.00
2013-9-24,77.7,66.6,60.4,54.9,51.0,46.8,71,58,42,29.74,29.65,20,6,20,0.00
2013-9-25,73.6,62.7,56.5,51.3,46.0,41.2,70,56,38,29.68,29.56,20,8,25,0.00
2013-9-26,78.8,63.7,53.2,45.7,41.1,35.9,63,45,28,29.71,29.56,13,4,13,0.00
2013-9-27,81.9,65.3,52.3,48.9,39.0,32.3,61,40,22,29.79,29.71,10,2,10,0.00
2013-9-28,86.5,69.1,52.5,52.6,42.8,33.0,62,40,24,29.82,29.74,10,2,11,0.00
2013-9-29,82.0,67.6,56.3,59.8,53.7,48.2,79,62,44,29.85,29.76,10,2,10,0.00
2013-9-30,79.7,68.3,61.3,63.9,57.5,45.5,86,69,52,29.85,29.71,10,2,10,0.00
2013-10-1,79.0,65.0,55.9,53.6,47.5,41.9,71,54,40,29.74,29.65,13,2,13,0.00
2013-10-2,81.9,64.2,53.6,56.0,45.7,37.2,74,53,31,29.74,29.65,8,2,10,0.00
2013-10-3,78.4,64.3,51.4,45.2,38.9,34.7,58,41,27,29.79,29.68,10,4,10,0.00
2013-10-4,84.7,69.8,58.8,39.9,34.8,29.4,37,28,20,29.82,29.68,10,3,10,0.00
2013-10-5,88.2,69.9,55.6,40.3,32.3,26.0,37,25,18,29.91,29.82,5,1,5,0.00
2013-10-6,87.3,68.4,54.9,49.1,35.6,27.4,46,31,20,29.82,29.74,4,1,4,0.00
2013-10-7,87.6,68.6,56.5,48.5,35.1,28.8,37,30,20,29.76,29.62,3,2,3,6.11
2013-10-8,81.9,63.8,53.1,52.0,42.7,33.4,69,48,30,29.65,29.47,2,2,2,0.00
2013-10-9,74.8,60.3,50.4,49.3,42.0,36.2,72,53,35,29.50,29.35,2,2,2,0.00
2013-10-10,78.8,61.8,51.8,52.0,43.6,36.9,67,52,37,29.74,29.47,2,2,2,0.00
2013-10-11,73.9,59.4,52.2,55.4,47.3,42.5,76,65,46,29.82,29.71,4,2,4,0.00
2013-10-12,75.0,58.9,48.9,57.5,46.8,40.4,83,66,40,29.79,29.65,14,2,19,0.00
2013-10-13,77.9,62.2,50.4,53.8,45.0,37.4,81,56,33,29.79,29.65,5,2,5,0.00
2013-10-14,81.9,63.7,50.5,50.6,40.9,34.2,72,46,26,29.85,29.74,6,1,6,0.00
2013-10-15,84.0,65.8,52.5,45.4,36.5,29.1,53,36,22,29.79,29.71,8,2,13,0.00
2013-10-16,85.5,66.1,52.7,45.2,35.1,29.9,47,33,20,29.79,29.74,10,1,12,0.00
2013-10-17,86.5,66.3,53.2,48.2,36.0,27.6,49,34,21,29.79,29.71,8,1,8,0.00
2013-10-18,99.9,63.6,34.2,54.9,44.0,0.0,69,50,22,29.79,29.71,4,1,5,0.00
2013-10-19,83.8,64.0,52.2,58.1,48.0,41.8,80,58,34,29.79,29.74,6,1,6,0.00
2013-10-20,78.1,60.2,50.2,59.8,47.9,42.2,80,65,44,29.76,29.65,4,1,6,0.00
2013-10-21,74.5,59.1,50.7,58.0,48.8,42.8,82,70,49,29.76,29.65,5,1,6,0.00
2013-10-22,75.9,58.8,50.0,59.9,49.4,42.7,85,72,52,29.74,29.65,6,1,6,0.00
2013-10-23,72.1,57.6,50.9,60.2,50.0,43.6,88,76,58,29.71,29.62,5,1,5,2.57
2013-10-24,69.1,57.6,51.4,56.4,49.1,44.1,82,74,57,29.88,29.68,7,2,8,0.00
2013-10-25,75.4,58.7,49.1,57.6,48.8,43.0,85,71,50,29.88,29.79,6,1,6,0.00
2013-10-26,80.2,61.3,49.6,60.2,49.4,44.0,87,67,43,29.85,29.74,6,1,6,0.00
2013-10-27,68.4,56.0,48.6,56.6,46.8,41.5,83,72,54,29.74,29.44,35,5,35,0.00
2013-10-28,65.5,59.4,55.4,49.4,46.4,43.7,74,63,50,29.59,29.47,16,4,16,0.00
2013-10-29,65.1,56.6,49.8,51.6,46.7,41.0,81,70,54,29.79,29.56,10,2,10,0.00
2013-10-30,73.4,56.6,46.6,55.3,44.5,38.7,85,65,43,29.88,29.76,8,1,10,0.00
2013-10-31,78.3,59.0,47.3,52.7,43.3,38.2,77,58,35,29.88,29.79,7,1,7,0.00
2013-11-1,79.5,60.8,49.3,50.4,43.0,39.6,74,54,32,29.85,29.74,5,1,5,0.00
2013-11-2,74.7,59.1,50.4,54.6,44.6,39.7,71,59,45,29.76,29.62,12,2,13,0.00
2013-11-3,68.4,56.1,46.6,45.7,38.9,33.0,76,55,33,29.76,29.65,13,3,13,0.00
2013-11-4,74.1,57.7,44.8,41.6,35.0,30.1,68,44,28,29.79,29.62,11,3,13,0.00
2013-11-5,78.6,61.2,49.8,43.1,34.8,28.3,52,38,25,29.94,29.76,6,2,6,0.00
2013-11-6,77.2,60.3,49.5,45.8,38.7,32.7,66,46,30,29.97,29.85,4,1,5,0.00
2013-11-7,79.2,61.1,52.7,49.1,41.2,36.5,63,49,25,29.88,29.79,6,1,6,0.00
2013-11-8,78.3,59.2,48.9,58.6,45.7,39.0,82,62,41,29.79,29.68,8,1,10,0.00
2013-11-9,75.7,58.0,48.2,56.0,45.6,40.5,80,65,44,29.79,29.68,6,1,6,0.00
2013-11-10,71.2,56.1,48.0,56.7,47.5,0.0,85,74,55,29.82,29.74,5,1,6,0.00
2013-11-11,68.4,58.7,53.6,56.1,50.7,47.9,82,75,61,29.88,29.76,6,1,6,0.00
2013-11-12,78.8,62.4,55.6,58.1,49.0,43.0,77,63,40,30.03,29.88,8,1,9,0.00
2013-11-13,80.8,61.1,51.6,59.3,50.1,44.8,83,69,42,29.97,29.82,5,1,5,0.00
2013-11-14,72.0,57.8,52.5,60.0,49.3,41.2,88,74,58,29.82,29.62,10,2,116,0.00
2013-11-15,74.1,57.0,48.2,49.2,40.4,34.1,74,55,34,29.68,29.44,7,3,10,0.00
2013-11-16,72.5,54.8,46.4,50.0,43.3,37.8,77,66,42,29.68,29.47,11,2,14,0.00
2013-11-17,71.8,54.8,47.3,54.6,44.9,41.0,85,70,47,29.79,29.65,10,1,10,0.00
2013-11-18,66.6,53.7,46.6,52.1,44.6,40.6,84,72,54,29.85,29.79,8,1,8,0.00
2013-11-19,62.2,56.5,51.1,55.7,50.8,43.3,92,81,71,29.82,29.68,6,1,6,0.25
2013-11-20,62.1,56.9,50.7,59.7,54.8,48.5,94,93,90,29.74,29.56,8,1,8,0.33
2013-11-21,68.4,56.0,48.7,55.7,45.3,31.3,94,70,45,29.74,29.62,11,2,11,0.04
2013-11-22,75.7,59.1,46.9,41.0,30.1,24.5,51,34,25,29.74,29.62,8,3,10,0.00
2013-11-23,73.4,55.6,45.0,41.6,34.3,26.7,64,45,31,29.82,29.68,6,2,6,0.00
2013-11-24,72.0,53.5,44.8,51.6,40.3,35.8,79,62,40,29.97,29.79,6,1,6,0.00
2013-11-25,72.0,53.4,43.5,51.2,40.7,36.0,79,64,40,30.03,29.94,4,1,4,0.00
2013-11-26,66.7,54.0,46.4,49.6,43.0,39.2,82,67,48,29.97,29.74,6,1,6,0.00
2013-11-27,70.9,55.2,45.9,52.9,44.3,39.6,83,68,46,29.74,29.56,5,1,5,0.00
2013-11-28,74.7,57.3,49.6,50.8,43.8,38.6,75,62,41,29.85,29.56,5,1,5,0.00
2013-11-29,75.0,56.1,46.8,53.9,42.6,37.7,74,61,40,29.94,29.79,6,1,6,0.00
2013-11-30,73.0,55.0,47.1,56.4,44.3,38.5,82,68,45,29.97,29.88,5,1,5,4.52
2013-12-1,75.4,56.2,46.4,56.5,44.6,39.6,83,66,47,30.03,29.91,6,1,6,0.00
2013-12-2,56.8,51.2,46.6,50.4,43.5,39.3,82,75,67,29.94,29.71,9,1,9,0.00
2013-12-3,57.9,52.1,44.8,51.9,39.7,30.0,84,63,48,29.71,29.56,20,5,22,0.00
2013-12-4,62.8,45.9,37.0,34.5,26.8,21.1,57,48,34,29.79,29.65,6,2,8,0.00
2013-12-5,62.2,42.9,33.1,33.5,22.9,18.3,56,46,31,29.94,29.76,6,1,6,0.00
2013-12-6,59.0,45.9,36.7,45.1,33.7,23.8,81,63,46,29.91,29.65,23,2,23,0.42
2013-12-7,58.5,45.1,35.6,45.1,32.3,23.3,83,62,40,29.94,29.65,24,5,25,0.08
2013-12-8,57.4,40.7,33.3,35.4,25.4,18.0,73,56,38,30.03,29.91,10,1,10,0.00
2013-12-9,61.2,42.2,34.0,32.1,21.4,15.8,54,44,32,30.12,30.00,8,2,9,0.00
2013-12-10,61.5,43.5,33.1,35.0,25.9,19.8,61,50,35,30.12,29.88,8,2,8,6.78
2013-12-11,64.9,45.5,36.1,37.4,28.7,19.8,67,53,34,29.97,29.85,8,1,8,0.00
2013-12-12,67.3,47.1,36.5,40.6,31.4,26.0,68,56,35,30.00,29.85,4,1,226,0.00
2013-12-13,67.3,48.3,39.2,48.0,35.6,0.0,79,63,18,30.03,29.91,5,1,5,0.00
2013-12-14,69.3,49.2,39.6,48.0,35.4,30.6,78,60,37,30.09,30.00,4,1,4,0.00
2013-12-15,70.0,50.5,40.3,44.2,35.2,12.7,72,57,36,30.06,29.91,9,1,9,0.00
2013-12-16,75.7,54.7,44.1,44.8,35.1,30.5,60,49,31,30.00,29.82,6,1,6,0.00
2013-12-17,69.6,53.5,44.4,45.2,37.3,31.9,68,55,38,29.88,29.74,4,1,4,0.00
2013-12-18,65.1,52.3,45.3,50.4,41.0,35.0,76,65,56,29.79,29.53,8,1,8,0.00
2013-12-19,66.6,52.9,44.8,46.0,37.2,25.4,76,57,38,29.68,29.44,20,5,224,0.00
2013-12-20,70.3,50.1,39.9,33.3,24.3,19.9,48,37,23,29.74,29.65,7,1,7,0.00
2013-12-21,71.4,52.6,44.4,51.2,39.1,23.2,75,61,41,29.82,29.68,9,1,10,0.00
2013-12-22,75.0,53.9,43.9,51.0,40.0,34.5,84,62,34,29.97,29.76,6,1,6,0.00
2013-12-23,71.1,52.8,43.7,50.3,38.7,34.4,75,60,40,30.09,29.97,6,1,6,0.00
2013-12-24,138.0,55.0,44.8,50.7,39.1,30.3,73,57,3,30.09,29.91,5,1,5,0.08
2013-12-25,73.8,53.8,43.9,47.0,38.0,34.0,70,56,34,30.03,29.88,4,1,5,0.00
2013-12-26,73.9,53.8,43.0,47.7,38.0,33.2,73,56,34,29.97,29.85,4,1,4,0.00
2013-12-27,64.8,50.7,43.0,47.6,39.0,34.4,75,65,48,29.91,29.82,4,1,6,0.00
2013-12-28,72.9,51.7,41.2,48.5,36.0,0.0,82,58,33,29.88,29.71,5,1,5,0.00
2013-12-29,76.1,55.6,46.2,36.3,28.5,24.7,49,36,22,29.88,29.76,5,2,6,3.94
2013-12-30,71.4,51.5,41.5,40.8,32.2,25.4,60,48,32,29.94,29.85,6,1,6,0.00
2013-12-31,67.5,50.2,42.1,50.6,38.2,0.0,79,64,46,29.97,29.85,6,1,6,0.00
2014-1-1,65.8,50.4,41.2,50.8,39.0,33.5,81,66,49,29.91,29.82,4,1,4,0.00
2014-1-2,72.5,53.3,43.5,46.0,37.6,32.8,75,57,35,29.88,29.76,4,1,226,0.00